"Time","Value","Approval","myLocation"
"2023-05-06 00:00",19.1533454488627,"Approved","OW124"
"2023-05-06 01:00",19.1549510637737,"Approved","OW124"
"2023-05-06 02:00",19.1525566786847,"Approved","OW124"
"2023-05-06 03:00",19.1546622935958,"Approved","OW124"
"2023-05-06 04:00",19.1536679085068,"Approved","OW124"
"2023-05-06 05:00",19.1551735234178,"Approved","OW124"
"2023-05-06 06:00",19.1537791383288,"Approved","OW124"
"2023-05-06 07:00",19.1555847532398,"Approved","OW124"
"2023-05-06 08:00",19.1567903681509,"Approved","OW124"
"2023-05-06 09:00",19.1551959830619,"Approved","OW124"
"2023-05-06 10:00",19.1556015979729,"Approved","OW124"
"2023-05-06 11:00",19.1559072128839,"Approved","OW124"
"2023-05-06 12:00",19.1550128277949,"Approved","OW124"
"2023-05-06 13:00",19.157318442706,"Approved","OW124"
"2023-05-06 14:00",19.158424057617,"Approved","OW124"
"2023-05-06 15:00",19.161129672528,"Approved","OW124"
"2023-05-06 16:00",19.163635287439,"Approved","OW124"
"2023-05-06 17:00",19.19114090235,"Approved","OW124"
"2023-05-06 18:00",19.1736465172611,"Approved","OW124"
"2023-05-06 19:00",19.1730521321721,"Approved","OW124"
"2023-05-06 20:00",19.1731577470831,"Approved","OW124"
"2023-05-06 21:00",19.2019633619941,"Approved","OW124"
"2023-05-06 22:00",19.2137689769051,"Approved","OW124"
"2023-05-06 23:00",19.2184745918161,"Approved","OW124"
"2023-05-07 00:00",19.2240802067272,"Approved","OW124"
"2023-05-07 01:00",19.2277858216382,"Approved","OW124"
"2023-05-07 02:00",19.2293914365492,"Approved","OW124"
"2023-05-07 03:00",19.2333970514602,"Approved","OW124"
"2023-05-07 04:00",19.2381026663712,"Approved","OW124"
"2023-05-07 05:00",19.2106082812823,"Approved","OW124"
"2023-05-07 06:00",19.2040138961933,"Approved","OW124"
"2023-05-07 07:00",19.2000195111043,"Approved","OW124"
"2023-05-07 08:00",19.1982251260153,"Approved","OW124"
"2023-05-07 09:00",19.1966307409263,"Approved","OW124"
"2023-05-07 10:00",19.1943363558373,"Approved","OW124"
"2023-05-07 11:00",19.1931419707484,"Approved","OW124"
"2023-05-07 12:00",19.1933475856594,"Approved","OW124"
"2023-05-07 13:00",19.1933532005704,"Approved","OW124"
"2023-05-07 14:00",19.1925588154814,"Approved","OW124"
"2023-05-07 15:00",19.1943644303924,"Approved","OW124"
"2023-05-07 16:00",19.1949700453035,"Approved","OW124"
"2023-05-07 17:00",19.1958756602145,"Approved","OW124"
"2023-05-07 18:00",19.1967812751255,"Approved","OW124"
"2023-05-07 19:00",19.1979868900365,"Approved","OW124"
"2023-05-07 20:00",19.1980925049475,"Approved","OW124"
"2023-05-07 21:00",19.1969981198586,"Approved","OW124"
"2023-05-07 22:00",19.2322037347696,"Approved","OW124"
"2023-05-07 23:00",19.2392093496806,"Approved","OW124"
"2023-05-08 00:00",19.2228149645916,"Approved","OW124"
"2023-05-08 01:00",19.2117205795026,"Approved","OW124"
"2023-05-08 02:00",19.2061261944136,"Approved","OW124"
"2023-05-08 03:00",19.2024318093247,"Approved","OW124"
"2023-05-08 04:00",19.2367374242357,"Approved","OW124"
"2023-05-08 05:00",19.2441430391467,"Approved","OW124"
"2023-05-08 06:00",19.2146486540577,"Approved","OW124"
"2023-05-08 07:00",19.2102542689687,"Approved","OW124"
"2023-05-08 08:00",19.2083598838798,"Approved","OW124"
"2023-05-08 09:00",19.2064654987908,"Approved","OW124"
"2023-05-08 10:00",19.2053711137018,"Approved","OW124"
"2023-05-08 11:00",19.2045767286128,"Approved","OW124"
"2023-05-08 12:00",19.2042823435238,"Approved","OW124"
"2023-05-08 13:00",19.2042879584349,"Approved","OW124"
"2023-05-08 14:00",19.2055935733459,"Approved","OW124"
"2023-05-08 15:00",19.2072991882569,"Approved","OW124"
"2023-05-08 16:00",19.2072048031679,"Approved","OW124"
"2023-05-08 17:00",19.2185104180789,"Approved","OW124"
"2023-05-08 18:00",19.2475160329899,"Approved","OW124"
"2023-05-08 19:00",19.258321647901,"Approved","OW124"
"2023-05-08 20:00",19.266327262812,"Approved","OW124"
"2023-05-08 21:00",19.271832877723,"Approved","OW124"
"2023-05-08 22:00",19.276538492634,"Approved","OW124"
"2023-05-08 23:00",19.280344107545,"Approved","OW124"
"2023-05-09 00:00",19.2829497224561,"Approved","OW124"
"2023-05-09 01:00",19.2546553373671,"Approved","OW124"
"2023-05-09 02:00",19.2466609522781,"Approved","OW124"
"2023-05-09 03:00",19.2408665671891,"Approved","OW124"
"2023-05-09 04:00",19.2365721821001,"Approved","OW124"
"2023-05-09 05:00",19.2353777970112,"Approved","OW124"
"2023-05-09 06:00",19.2343834119222,"Approved","OW124"
"2023-05-09 07:00",19.2326890268332,"Approved","OW124"
"2023-05-09 08:00",19.2314946417442,"Approved","OW124"
"2023-05-09 09:00",19.2304002566552,"Approved","OW124"
"2023-05-09 10:00",19.2292058715662,"Approved","OW124"
"2023-05-09 11:00",19.2287114864773,"Approved","OW124"
"2023-05-09 12:00",19.2280171013883,"Approved","OW124"
"2023-05-09 13:00",19.2271227162993,"Approved","OW124"
"2023-05-09 14:00",19.2283283312103,"Approved","OW124"
"2023-05-09 15:00",19.2285339461213,"Approved","OW124"
"2023-05-09 16:00",19.2302395610324,"Approved","OW124"
"2023-05-09 17:00",19.2303451759434,"Approved","OW124"
"2023-05-09 18:00",19.2323507908544,"Approved","OW124"
"2023-05-09 19:00",19.2347564057654,"Approved","OW124"
"2023-05-09 20:00",19.2351620206764,"Approved","OW124"
"2023-05-09 21:00",19.2352676355874,"Approved","OW124"
"2023-05-09 22:00",19.2350732504985,"Approved","OW124"
"2023-05-09 23:00",19.2338788654095,"Approved","OW124"
"2023-05-10 00:00",19.2320844803205,"Approved","OW124"
"2023-05-10 01:00",19.2296900952315,"Approved","OW124"
"2023-05-10 02:00",19.2280957101425,"Approved","OW124"
"2023-05-10 03:00",19.2256013250536,"Approved","OW124"
"2023-05-10 04:00",19.2243069399646,"Approved","OW124"
"2023-05-10 05:00",19.2223125548756,"Approved","OW124"
"2023-05-10 06:00",19.2201181697866,"Approved","OW124"
"2023-05-10 07:00",19.2193237846976,"Approved","OW124"
"2023-05-10 08:00",19.2194293996087,"Approved","OW124"
"2023-05-10 09:00",19.2192350145197,"Approved","OW124"
"2023-05-10 10:00",19.2184406294307,"Approved","OW124"
"2023-05-10 11:00",19.2179462443417,"Approved","OW124"
"2023-05-10 12:00",19.2175518592527,"Approved","OW124"
"2023-05-10 13:00",19.2179574741637,"Approved","OW124"
"2023-05-10 14:00",19.2170630890748,"Approved","OW124"
"2023-05-10 15:00",19.2196687039858,"Approved","OW124"
"2023-05-10 16:00",19.2201743188968,"Approved","OW124"
"2023-05-10 17:00",19.2202799338078,"Approved","OW124"
"2023-05-10 18:00",19.2223855487188,"Approved","OW124"
"2023-05-10 19:00",19.2237911636299,"Approved","OW124"
"2023-05-10 20:00",19.2243967785409,"Approved","OW124"
"2023-05-10 21:00",19.2247023934519,"Approved","OW124"
"2023-05-10 22:00",19.2244080083629,"Approved","OW124"
"2023-05-10 23:00",19.2238136232739,"Approved","OW124"
"2023-05-11 00:00",19.222719238185,"Approved","OW124"
"2023-05-11 01:00",19.220824853096,"Approved","OW124"
"2023-05-11 02:00",19.219330468007,"Approved","OW124"
"2023-05-11 03:00",19.217236082918,"Approved","OW124"
"2023-05-11 04:00",19.215441697829,"Approved","OW124"
"2023-05-11 05:00",19.21344731274,"Approved","OW124"
"2023-05-11 06:00",19.2123529276511,"Approved","OW124"
"2023-05-11 07:00",19.2120585425621,"Approved","OW124"
"2023-05-11 08:00",19.2109641574731,"Approved","OW124"
"2023-05-11 09:00",19.2095697723841,"Approved","OW124"
"2023-05-11 10:00",19.2102753872951,"Approved","OW124"
"2023-05-11 11:00",19.2114810022062,"Approved","OW124"
"2023-05-11 12:00",19.2111866171172,"Approved","OW124"
"2023-05-11 13:00",19.2109922320282,"Approved","OW124"
"2023-05-11 14:00",19.2116978469392,"Approved","OW124"
"2023-05-11 15:00",19.2120034618502,"Approved","OW124"
"2023-05-11 16:00",19.2137090767613,"Approved","OW124"
"2023-05-11 17:00",19.2152146916723,"Approved","OW124"
"2023-05-11 18:00",19.2180203065833,"Approved","OW124"
"2023-05-11 19:00",19.2183259214943,"Approved","OW124"
"2023-05-11 20:00",19.2207315364053,"Approved","OW124"
"2023-05-11 21:00",19.2202371513163,"Approved","OW124"
"2023-05-11 22:00",19.2214427662274,"Approved","OW124"
"2023-05-11 23:00",19.2209483811384,"Approved","OW124"
"2023-05-12 00:00",19.2205539960494,"Approved","OW124"
"2023-05-12 01:00",19.2208596109604,"Approved","OW124"
"2023-05-12 02:00",19.2201652258714,"Approved","OW124"
"2023-05-12 03:00",19.2191708407825,"Approved","OW124"
"2023-05-12 04:00",19.2188764556935,"Approved","OW124"
"2023-05-12 05:00",19.2180820706045,"Approved","OW124"
"2023-05-12 06:00",19.2176876855155,"Approved","OW124"
"2023-05-12 07:00",19.2151933004265,"Approved","OW124"
"2023-05-12 08:00",19.2153989153375,"Approved","OW124"
"2023-05-12 09:00",19.2158045302486,"Approved","OW124"
"2023-05-12 10:00",19.2150101451596,"Approved","OW124"
"2023-05-12 11:00",19.2166157600706,"Approved","OW124"
"2023-05-12 12:00",19.2168213749816,"Approved","OW124"
"2023-05-12 13:00",19.2191269898926,"Approved","OW124"
"2023-05-12 14:00",19.2190326048037,"Approved","OW124"
"2023-05-12 15:00",19.2191382197147,"Approved","OW124"
"2023-05-12 16:00",19.2215438346257,"Approved","OW124"
"2023-05-12 17:00",19.2234494495367,"Approved","OW124"
"2023-05-12 18:00",19.2267550644477,"Approved","OW124"
"2023-05-12 19:00",19.2253606793588,"Approved","OW124"
"2023-05-12 20:00",19.2547662942698,"Approved","OW124"
"2023-05-12 21:00",19.2685719091808,"Approved","OW124"
"2023-05-12 22:00",19.2761775240918,"Approved","OW124"
"2023-05-12 23:00",19.2599831390028,"Approved","OW124"
"2023-05-13 00:00",19.2502887539138,"Approved","OW124"
"2023-05-13 01:00",19.2476943688249,"Approved","OW124"
"2023-05-13 02:00",19.2466999837359,"Approved","OW124"
"2023-05-13 03:00",19.2451055986469,"Approved","OW124"
"2023-05-13 04:00",19.2430112135579,"Approved","OW124"
"2023-05-13 05:00",19.2428168284689,"Approved","OW124"
"2023-05-13 06:00",19.24002244338,"Approved","OW124"
"2023-05-13 07:00",19.238728058291,"Approved","OW124"
"2023-05-13 08:00",19.238933673202,"Approved","OW124"
"2023-05-13 09:00",19.237139288113,"Approved","OW124"
"2023-05-13 10:00",19.236544903024,"Approved","OW124"
"2023-05-13 11:00",19.237250517935,"Approved","OW124"
"2023-05-13 12:00",19.2373561328461,"Approved","OW124"
"2023-05-13 13:00",19.2379617477571,"Approved","OW124"
"2023-05-13 14:00",19.2387673626681,"Approved","OW124"
"2023-05-13 15:00",19.2387729775791,"Approved","OW124"
"2023-05-13 16:00",19.2384785924901,"Approved","OW124"
"2023-05-13 17:00",19.2420842074012,"Approved","OW124"
"2023-05-13 18:00",19.2444898223122,"Approved","OW124"
"2023-05-13 19:00",19.2436954372232,"Approved","OW124"
"2023-05-13 20:00",19.2431010521342,"Approved","OW124"
"2023-05-13 21:00",19.2430066670452,"Approved","OW124"
"2023-05-13 22:00",19.2430122819563,"Approved","OW124"
"2023-05-13 23:00",19.2421178968673,"Approved","OW124"
"2023-05-14 00:00",19.2424235117783,"Approved","OW124"
"2023-05-14 01:00",19.2427291266893,"Approved","OW124"
"2023-05-14 02:00",19.2427347416003,"Approved","OW124"
"2023-05-14 03:00",19.2431403565114,"Approved","OW124"
"2023-05-14 04:00",19.2433459714224,"Approved","OW124"
"2023-05-14 05:00",19.2426515863334,"Approved","OW124"
"2023-05-14 06:00",19.2415572012444,"Approved","OW124"
"2023-05-14 07:00",19.2409628161554,"Approved","OW124"
"2023-05-14 08:00",19.2402684310664,"Approved","OW124"
"2023-05-14 09:00",19.2396740459775,"Approved","OW124"
"2023-05-14 10:00",19.2394796608885,"Approved","OW124"
"2023-05-14 11:00",19.2403852757995,"Approved","OW124"
"2023-05-14 12:00",19.2400908907105,"Approved","OW124"
"2023-05-14 13:00",19.2408965056215,"Approved","OW124"
"2023-05-14 14:00",19.2416021205326,"Approved","OW124"
"2023-05-14 15:00",19.2416077354436,"Approved","OW124"
"2023-05-14 16:00",19.2422133503546,"Approved","OW124"
"2023-05-14 17:00",19.2434189652656,"Approved","OW124"
"2023-05-14 18:00",19.2437245801766,"Approved","OW124"
"2023-05-14 19:00",19.2428301950876,"Approved","OW124"
"2023-05-14 20:00",19.2413358099987,"Approved","OW124"
"2023-05-14 21:00",19.2393414249097,"Approved","OW124"
"2023-05-14 22:00",19.2376470398207,"Approved","OW124"
"2023-05-14 23:00",19.2357526547317,"Approved","OW124"
"2023-05-15 00:00",19.2346582696427,"Approved","OW124"
"2023-05-15 01:00",19.2341638845538,"Approved","OW124"
"2023-05-15 02:00",19.2339694994648,"Approved","OW124"
"2023-05-15 03:00",19.2342751143758,"Approved","OW124"
"2023-05-15 04:00",19.2330807292868,"Approved","OW124"
"2023-05-15 05:00",19.2318863441978,"Approved","OW124"
"2023-05-15 06:00",19.2295919591089,"Approved","OW124"
"2023-05-15 07:00",19.2273975740199,"Approved","OW124"
"2023-05-15 08:00",19.2258031889309,"Approved","OW124"
"2023-05-15 09:00",19.2238088038419,"Approved","OW124"
"2023-05-15 10:00",19.2225144187529,"Approved","OW124"
"2023-05-15 11:00",19.2222200336639,"Approved","OW124"
"2023-05-15 12:00",19.221225648575,"Approved","OW124"
"2023-05-15 13:00",19.221431263486,"Approved","OW124"
"2023-05-15 14:00",19.221536878397,"Approved","OW124"
"2023-05-15 15:00",19.220242493308,"Approved","OW124"
"2023-05-15 16:00",19.220548108219,"Approved","OW124"
"2023-05-15 17:00",19.2211537231301,"Approved","OW124"
"2023-05-15 18:00",19.2207593380411,"Approved","OW124"
"2023-05-15 19:00",19.2214649529521,"Approved","OW124"
"2023-05-15 20:00",19.2171705678631,"Approved","OW124"
"2023-05-15 21:00",19.2167761827741,"Approved","OW124"
"2023-05-15 22:00",19.2139817976851,"Approved","OW124"
"2023-05-15 23:00",19.2133874125962,"Approved","OW124"
"2023-05-16 00:00",19.2155930275072,"Approved","OW124"
"2023-05-16 01:00",19.2167986424182,"Approved","OW124"
"2023-05-16 02:00",19.2173042573292,"Approved","OW124"
"2023-05-16 03:00",19.2188098722402,"Approved","OW124"
"2023-05-16 04:00",19.2214154871513,"Approved","OW124"
"2023-05-16 05:00",19.2244211020623,"Approved","OW124"
"2023-05-16 06:00",19.2238267169733,"Approved","OW124"
"2023-05-16 07:00",19.2257323318843,"Approved","OW124"
"2023-05-16 08:00",19.2266379467953,"Approved","OW124"
"2023-05-16 09:00",19.2259435617064,"Approved","OW124"
"2023-05-16 10:00",19.2272491766174,"Approved","OW124"
"2023-05-16 11:00",19.2273547915284,"Approved","OW124"
"2023-05-16 12:00",19.2289604064394,"Approved","OW124"
"2023-05-16 13:00",19.2304660213504,"Approved","OW124"
"2023-05-16 14:00",19.2321716362614,"Approved","OW124"
"2023-05-16 15:00",19.2337772511725,"Approved","OW124"
"2023-05-16 16:00",19.2346828660835,"Approved","OW124"
"2023-05-16 17:00",19.2357884809945,"Approved","OW124"
"2023-05-16 18:00",19.2366940959055,"Approved","OW124"
"2023-05-16 19:00",19.2372997108165,"Approved","OW124"
"2023-05-16 20:00",19.2347053257276,"Approved","OW124"
"2023-05-16 21:00",19.2327109406386,"Approved","OW124"
"2023-05-16 22:00",19.2303165555496,"Approved","OW124"
"2023-05-16 23:00",19.2289221704606,"Approved","OW124"
"2023-05-17 00:00",19.2264277853716,"Approved","OW124"
"2023-05-17 01:00",19.2250334002827,"Approved","OW124"
"2023-05-17 02:00",19.2253390151937,"Approved","OW124"
"2023-05-17 03:00",19.2237446301047,"Approved","OW124"
"2023-05-17 04:00",19.2228502450157,"Approved","OW124"
"2023-05-17 05:00",19.2233558599267,"Approved","OW124"
"2023-05-17 06:00",19.2233614748377,"Approved","OW124"
"2023-05-17 07:00",19.2237670897488,"Approved","OW124"
"2023-05-17 08:00",19.2233727046598,"Approved","OW124"
"2023-05-17 09:00",19.2231783195708,"Approved","OW124"
"2023-05-17 10:00",19.2223839344818,"Approved","OW124"
"2023-05-17 11:00",19.2220895493928,"Approved","OW124"
"2023-05-17 12:00",19.2232951643039,"Approved","OW124"
"2023-05-17 13:00",19.2229007792149,"Approved","OW124"
"2023-05-17 14:00",19.2238063941259,"Approved","OW124"
"2023-05-17 15:00",19.2248120090369,"Approved","OW124"
"2023-05-17 16:00",19.2264176239479,"Approved","OW124"
"2023-05-17 17:00",19.227023238859,"Approved","OW124"
"2023-05-17 18:00",19.22772885377,"Approved","OW124"
"2023-05-17 19:00",19.229034468681,"Approved","OW124"
"2023-05-17 20:00",19.229940083592,"Approved","OW124"
"2023-05-17 21:00",19.227745698503,"Approved","OW124"
"2023-05-17 22:00",19.225251313414,"Approved","OW124"
"2023-05-17 23:00",19.2223569283251,"Approved","OW124"
"2023-05-18 00:00",19.2206625432361,"Approved","OW124"
"2023-05-18 01:00",19.2180681581471,"Approved","OW124"
"2023-05-18 02:00",19.2174737730581,"Approved","OW124"
"2023-05-18 03:00",19.2169793879691,"Approved","OW124"
"2023-05-18 04:00",19.2160850028802,"Approved","OW124"
"2023-05-18 05:00",19.2158906177912,"Approved","OW124"
"2023-05-18 06:00",19.2164962327022,"Approved","OW124"
"2023-05-18 07:00",19.2179018476132,"Approved","OW124"
"2023-05-18 08:00",19.2165074625242,"Approved","OW124"
"2023-05-18 09:00",19.2164130774352,"Approved","OW124"
"2023-05-18 10:00",19.2162186923463,"Approved","OW124"
"2023-05-18 11:00",19.2149243072573,"Approved","OW124"
"2023-05-18 12:00",19.2151299221683,"Approved","OW124"
"2023-05-18 13:00",19.2156355370793,"Approved","OW124"
"2023-05-18 14:00",19.2170411519903,"Approved","OW124"
"2023-05-18 15:00",19.2197467669014,"Approved","OW124"
"2023-05-18 16:00",19.2196523818124,"Approved","OW124"
"2023-05-18 17:00",19.2197579967234,"Approved","OW124"
"2023-05-18 18:00",19.2216636116344,"Approved","OW124"
"2023-05-18 19:00",19.2216692265454,"Approved","OW124"
"2023-05-18 20:00",19.2200748414565,"Approved","OW124"
"2023-05-18 21:00",19.2189804563675,"Approved","OW124"
"2023-05-18 22:00",19.2168860712785,"Approved","OW124"
"2023-05-18 23:00",19.2141916861895,"Approved","OW124"
"2023-05-19 00:00",19.2102973011005,"Approved","OW124"
"2023-05-19 01:00",19.2087029160115,"Approved","OW124"
"2023-05-19 02:00",19.2069085309226,"Approved","OW124"
"2023-05-19 03:00",19.2055141458336,"Approved","OW124"
"2023-05-19 04:00",19.2042197607446,"Approved","OW124"
"2023-05-19 05:00",19.2028253756556,"Approved","OW124"
"2023-05-19 06:00",19.2026309905666,"Approved","OW124"
"2023-05-19 07:00",19.2012366054777,"Approved","OW124"
"2023-05-19 08:00",19.2008422203887,"Approved","OW124"
"2023-05-19 09:00",19.1997478352997,"Approved","OW124"
"2023-05-19 10:00",19.2007534502107,"Approved","OW124"
"2023-05-19 11:00",19.1998590651217,"Approved","OW124"
"2023-05-19 12:00",19.2000646800328,"Approved","OW124"
"2023-05-19 13:00",19.2006702949438,"Approved","OW124"
"2023-05-19 14:00",19.2019759098548,"Approved","OW124"
"2023-05-19 15:00",19.2043815247658,"Approved","OW124"
"2023-05-19 16:00",19.2077871396768,"Approved","OW124"
"2023-05-19 17:00",19.2107927545878,"Approved","OW124"
"2023-05-19 18:00",19.2146983694989,"Approved","OW124"
"2023-05-19 19:00",19.2167039844099,"Approved","OW124"
"2023-05-19 20:00",19.2170095993209,"Approved","OW124"
"2023-05-19 21:00",19.2182152142319,"Approved","OW124"
"2023-05-19 22:00",19.2170208291429,"Approved","OW124"
"2023-05-19 23:00",19.2168361271358,"Approved","OW124"
"2023-05-20 00:00",19.2148283151604,"Approved","OW124"
"2023-05-20 01:00",19.2142205031851,"Approved","OW124"
"2023-05-20 02:00",19.2128126912097,"Approved","OW124"
"2023-05-20 03:00",19.2123048792343,"Approved","OW124"
"2023-05-20 04:00",19.2114970672589,"Approved","OW124"
"2023-05-20 05:00",19.2114892552836,"Approved","OW124"
"2023-05-20 06:00",19.2111814433082,"Approved","OW124"
"2023-05-20 07:00",19.2114736313328,"Approved","OW124"
"2023-05-20 08:00",19.2128658193574,"Approved","OW124"
"2023-05-20 09:00",19.2139580073821,"Approved","OW124"
"2023-05-20 10:00",19.2144501954067,"Approved","OW124"
"2023-05-20 11:00",19.2148423834313,"Approved","OW124"
"2023-05-20 12:00",19.215134571456,"Approved","OW124"
"2023-05-20 13:00",19.2137267594806,"Approved","OW124"
"2023-05-20 14:00",19.2121189475052,"Approved","OW124"
"2023-05-20 15:00",19.2098111355298,"Approved","OW124"
"2023-05-20 16:00",19.2063033235545,"Approved","OW124"
"2023-05-20 17:00",19.2031955115791,"Approved","OW124"
"2023-05-20 18:00",19.2015876996037,"Approved","OW124"
"2023-05-20 19:00",19.1990798876283,"Approved","OW124"
"2023-05-20 20:00",19.197772075653,"Approved","OW124"
"2023-05-20 21:00",19.1964642636776,"Approved","OW124"
"2023-05-20 22:00",19.1958564517022,"Approved","OW124"
"2023-05-20 23:00",19.1964486397268,"Approved","OW124"
"2023-05-21 00:00",19.1962408277515,"Approved","OW124"
"2023-05-21 01:00",19.1960330157761,"Approved","OW124"
"2023-05-21 02:00",19.1953252038007,"Approved","OW124"
"2023-05-21 03:00",19.1948173918253,"Approved","OW124"
"2023-05-21 04:00",19.19510957985,"Approved","OW124"
"2023-05-21 05:00",19.1956017678746,"Approved","OW124"
"2023-05-21 06:00",19.1951939558992,"Approved","OW124"
"2023-05-21 07:00",19.1955861439238,"Approved","OW124"
"2023-05-21 08:00",19.1964783319485,"Approved","OW124"
"2023-05-21 09:00",19.1977705199731,"Approved","OW124"
"2023-05-21 10:00",19.1986627079977,"Approved","OW124"
"2023-05-21 11:00",19.2001548960223,"Approved","OW124"
"2023-05-21 12:00",19.200747084047,"Approved","OW124"
"2023-05-21 13:00",19.2003392720716,"Approved","OW124"
"2023-05-21 14:00",19.1976314600962,"Approved","OW124"
"2023-05-21 15:00",19.1980236481208,"Approved","OW124"
"2023-05-21 16:00",19.1951158361455,"Approved","OW124"
"2023-05-21 17:00",19.1937080241701,"Approved","OW124"
"2023-05-21 18:00",19.1935002121947,"Approved","OW124"
"2023-05-21 19:00",19.1902924002194,"Approved","OW124"
"2023-05-21 20:00",19.189584588244,"Approved","OW124"
"2023-05-21 21:00",19.1889767762686,"Approved","OW124"
"2023-05-21 22:00",19.1886689642932,"Approved","OW124"
"2023-05-21 23:00",19.1877611523179,"Approved","OW124"
"2023-05-22 00:00",19.1877533403425,"Approved","OW124"
"2023-05-22 01:00",19.1887455283671,"Approved","OW124"
"2023-05-22 02:00",19.1886377163917,"Approved","OW124"
"2023-05-22 03:00",19.1885299044164,"Approved","OW124"
"2023-05-22 04:00",19.187322092441,"Approved","OW124"
"2023-05-22 05:00",19.1847142804656,"Approved","OW124"
"2023-05-22 06:00",19.1840064684902,"Approved","OW124"
"2023-05-22 07:00",19.1811986565149,"Approved","OW124"
"2023-05-22 08:00",19.1797908445395,"Approved","OW124"
"2023-05-22 09:00",19.1808830325641,"Approved","OW124"
"2023-05-22 10:00",19.1817752205887,"Approved","OW124"
"2023-05-22 11:00",19.1825674086134,"Approved","OW124"
"2023-05-22 12:00",19.181459596638,"Approved","OW124"
"2023-05-22 13:00",19.1802517846626,"Approved","OW124"
"2023-05-22 14:00",19.1762439726872,"Approved","OW124"
"2023-05-22 15:00",19.1756361607119,"Approved","OW124"
"2023-05-22 16:00",19.1734283487365,"Approved","OW124"
"2023-05-22 17:00",19.1728205367611,"Approved","OW124"
"2023-05-22 18:00",19.1726127247857,"Approved","OW124"
"2023-05-22 19:00",19.1708049128104,"Approved","OW124"
"2023-05-22 20:00",19.169097100835,"Approved","OW124"
"2023-05-22 21:00",19.1686892888596,"Approved","OW124"
"2023-05-22 22:00",19.1672814768842,"Approved","OW124"
"2023-05-22 23:00",19.1651736649089,"Approved","OW124"
"2023-05-23 00:00",19.1640658529335,"Approved","OW124"
"2023-05-23 01:00",19.1623580409581,"Approved","OW124"
"2023-05-23 02:00",19.1618502289828,"Approved","OW124"
"2023-05-23 03:00",19.1608424170074,"Approved","OW124"
"2023-05-23 04:00",19.159034605032,"Approved","OW124"
"2023-05-23 05:00",19.1586267930566,"Approved","OW124"
"2023-05-23 06:00",19.1588189810813,"Approved","OW124"
"2023-05-23 07:00",19.1567111691059,"Approved","OW124"
"2023-05-23 08:00",19.1581033571305,"Approved","OW124"
"2023-05-23 09:00",19.1591955451551,"Approved","OW124"
"2023-05-23 10:00",19.1594877331798,"Approved","OW124"
"2023-05-23 11:00",19.1599799212044,"Approved","OW124"
"2023-05-23 12:00",19.161172109229,"Approved","OW124"
"2023-05-23 13:00",19.1608642972536,"Approved","OW124"
"2023-05-23 14:00",19.1627564852783,"Approved","OW124"
"2023-05-23 15:00",19.1617486733029,"Approved","OW124"
"2023-05-23 16:00",19.1619408613275,"Approved","OW124"
"2023-05-23 17:00",19.1586330493521,"Approved","OW124"
"2023-05-23 18:00",19.1584252373768,"Approved","OW124"
"2023-05-23 19:00",19.1557174254014,"Approved","OW124"